SCP
0 0 0 0 0 0 0 0 0 0 0 0 0 0 0 0 0 0 -0 -0 -0 0
0 0 0 0 0 0 0 0 0 0 0 0 0 0 0 0 0 0 0 0 0 0
0 0 0 0 0 0 0 0 0 0 0 0 0 0 0 0 0 0 0 0 0 0
0 0 0 0 0 0 0 0 0 0 0 0 0 0 0 0 0 0 0 0 0 0
0 0 0 0 0 0 1 0 0 0 0 0 0 0 0 0 0 0 0 0 0 0
0 0 0 0 0 0 0 0 0 0 0 0 0 0 0 0 0 0 0 0 0 0
0 0 0 1 1 1 1 0 1 1 0 0 0 0 0 0 0 0 -0 0 -0 0
1 1 1 1 1 1 1 0 0 0 0 0 0 0 0 0 0 0 -0 -0 -0 0
1 1 1 1 0 0 0 0 0 -0 -0 0 0 0 0 0 0 -0 -0 -0 0 0
0 0 0 0 0 0 0 0 0 0 0 0 0 0 0 0 0 0 0 0 0 0
0 0 0 0 0 0 0 0 0 0 0 0 0 0 0 0 0 0 0 0 0 0
0 0 0 0 0 0 0 0 0 0 0 0 0 0 0 0 0 0 0 0 0 0
-0 0 0 0 0 0 0 0 0 0 0 0 0 0 0 0 0 0 0 0 0 0
-0 -0 0 0 0 0 0 0 0 0 0 0 0 0 0 0 0 0 0 0 0 0
Wind_Speed_500mb
44 44 42 36 34 32 26 22 20 19 23 29 26 24 27 29 31 34 35 34 36 36
44 45 42 39 41 36 32 30 28 22 27 22 28 28 26 25 24 30 33 34 34 39
39 41 41 41 44 44 38 36 33 35 30 28 27 30 33 32 28 29 31 37 39 39
41 41 40 40 39 39 39 36 35 34 35 37 35 29 36 37 34 34 34 37 38 39
41 40 40 40 36 37 41 40 40 40 40 34 35 34 31 36 38 42 42 39 39 47
45 43 39 35 34 37 41 46 49 52 46 47 44 40 16 22 40 52 47 40 42 45
53 44 35 33 32 33 38 46 48 48 53 44 14 13 23 44 49 59 51 52 52 48
58 46 37 36 38 40 44 55 53 43 39 34 36 25 32 27 33 35 65 55 66 53
53 40 34 38 35 38 38 43 37 36 27 18 13 10 14 22 31 44 59 63 49 51
18 22 24 27 31 32 19 15 17 19 20 19 14 6 6 10 12 15 28 31 34 39
11 14 7 6 6 5 8 12 16 20 22 20 18 17 13 11 11 14 18 24 28 31
13 12 13 12 12 13 15 16 19 23 23 24 19 17 14 14 15 18 21 28 32 34
17 17 19 20 21 19 16 19 22 23 25 25 28 26 23 22 19 18 21 25 23 20
18 23 26 23 20 20 20 19 22 25 24 27 29 31 27 29 31 20 15 14 10 11
Wind_Direction_500mb
243 248 253 258 260 264 265 273 276 263 259 261 267 244 238 244 255 257 257 257 255 252
244 247 252 260 260 264 263 264 271 274 262 278 262 256 256 257 261 264 262 261 257 256
252 252 254 258 261 263 269 269 266 260 269 275 271 271 260 254 258 266 271 264 256 253
247 252 255 258 264 268 270 269 263 262 265 259 267 271 272 273 274 281 286 276 267 268
250 252 258 259 265 268 270 270 269 269 270 272 267 268 275 263 264 262 268 271 275 281
244 250 255 265 276 275 275 277 278 278 282 277 273 266 291 318 318 277 265 270 274 277
241 248 255 265 276 285 287 284 283 283 278 279 303 285 302 301 316 254 252 261 272 285
248 253 258 265 274 281 283 285 287 287 287 285 289 264 292 271 255 234 219 256 273 275
249 252 260 270 282 280 284 295 323 335 352 35 22 330 288 263 256 234 237 280 280 275
229 240 252 270 276 288 312 337 353 27 39 32 26 5 328 290 285 277 274 282 287 291
246 257 254 290 304 338 23 24 28 32 37 39 30 19 13 350 328 309 294 288 291 293
90 95 99 92 78 69 71 62 41 34 41 33 29 19 359 331 308 289 275 273 278 288
95 95 97 92 85 86 62 48 45 34 23 23 12 8 5 353 333 314 300 290 295 305
90 103 99 92 84 71 65 60 39 24 19 13 13 14 22 24 24 15 25 32 14 347
Wind_Speed_850mb
44 44 42 36 34 32 26 22 20 19 23 29 26 24 27 29 31 34 35 34 36 36
44 45 42 39 41 36 32 30 28 22 27 22 28 28 26 25 24 30 33 34 34 39
39 41 41 41 44 44 38 36 33 35 30 28 27 30 33 32 28 29 31 37 39 39
41 41 40 40 39 39 39 36 35 34 35 37 35 29 36 37 34 34 34 37 38 39
41 40 40 40 36 37 41 40 40 40 40 34 35 34 31 36 38 42 42 39 39 47
45 43 39 35 34 37 41 46 49 52 46 47 44 40 16 22 40 52 47 40 42 45
53 44 35 33 32 33 38 46 48 48 53 44 14 13 23 44 49 59 51 52 52 48
58 46 37 36 38 40 44 55 53 43 39 34 36 25 32 27 33 35 65 55 66 53
53 40 34 38 35 38 38 43 37 36 27 18 13 10 14 22 31 44 59 63 49 51
18 22 24 27 31 32 19 15 17 19 20 19 14 6 6 10 12 15 28 31 34 39
11 14 7 6 6 5 8 12 16 20 22 20 18 17 13 11 11 14 18 24 28 31
13 12 13 12 12 13 15 16 19 23 23 24 19 17 14 14 15 18 21 28 32 34
17 17 19 20 21 19 16 19 22 23 25 25 28 26 23 22 19 18 21 25 23 20
18 23 26 23 20 20 20 19 22 25 24 27 29 31 27 29 31 20 15 14 10 11
Wind_Direction_850mb
243 248 253 258 260 264 265 273 276 263 259 261 267 244 238 244 255 257 257 257 255 252
244 247 252 260 260 264 263 264 271 274 262 278 262 256 256 257 261 264 262 261 257 256
252 252 254 258 261 263 269 269 266 260 269 275 271 271 260 254 258 266 271 264 256 253
247 252 255 258 264 268 270 269 263 262 265 259 267 271 272 273 274 281 286 276 267 268
250 252 258 259 265 268 270 270 269 269 270 272 267 268 275 263 264 262 268 271 275 281
244 250 255 265 276 275 275 277 278 278 282 277 273 266 291 318 318 277 265 270 274 277
241 248 255 265 276 285 287 284 283 283 278 279 303 285 302 301 316 254 252 261 272 285
248 253 258 265 274 281 283 285 287 287 287 285 289 264 292 271 255 234 219 256 273 275
249 252 260 270 282 280 284 295 323 335 352 35 22 330 288 263 256 234 237 280 280 275
229 240 252 270 276 288 312 337 353 27 39 32 26 5 328 290 285 277 274 282 287 291
246 257 254 290 304 338 23 24 28 32 37 39 30 19 13 350 328 309 294 288 291 293
90 95 99 92 78 69 71 62 41 34 41 33 29 19 359 331 308 289 275 273 278 288
95 95 97 92 85 86 62 48 45 34 23 23 12 8 5 353 333 314 300 290 295 305
90 103 99 92 84 71 65 60 39 24 19 13 13 14 22 24 24 15 25 32 14 347